Location: Acheville
(50.3840°N, 2.8827°E)
Time: 15:10:06
(UTC+00:00)

CENTAUR R/B - Pass Details

Date: 24 October 2021
Orbit: 728 x 1459 km, 63.4° (Epoch: 26 November)

Event Time Altitude Azimuth Distance (km) Brightness Sun altitude
Rises 17:57:54 0° 298° (WNW) 3,824 6.7 -13.2°
Reaches altitude 10° 18:00:44 10° 308° (NW) 2,982 5.8 -13.7°
Maximum altitude 18:07:08 32° 10° (N) 2,004 4.0 -14.7°
Enters shadow 18:12:34 16° 63° (ENE) 2,917 4.4 -15.6°
